Home   Weather   Ganja   Past weeks

Flag for Azerbaijan Past Weather in Ganja, Azerbaijan — Yesterday and Last 2 Weeks

Now
57 °F

Passing clouds.


Feels Like: 57 °F
Forecast: 53 / 72 °F
Wind: No wind

Location: Gyanca Airport

Current Time: Sep 25, 2016 at 11:19:03 PM

Latest Report: Sep 25, 2016 at 11:00 PM


Visibility: N/A

Pressure: 30.07 "Hg

Humidity: 63%

Dew Point: 45 °F

Location of GanjaLocation

Past Weather in Ganja — Graph

°F

Ganja Temperature Yesterday

Maximum temperature yesterday: 66 °F (at 11:30 AM)
Minimum temperature yesterday: 57 °F (at 10:00 PM)
Average temperature yesterday: 61 °F

High & Low Weather Summary for the Past Weeks

 TemperatureHumidityPressure
High88 °F (Sep 14, 4:30 PM)100% (Sep 19, 12:00 AM)30.12 "Hg (Sep 19, 12:00 AM)
Low52 °F (Sep 25, 3:00 AM)20% (Sep 18, 6:00 PM)29.62 "Hg (Sep 21, 5:00 PM)
Average70 °F57%29.93 "Hg
* Reported Sep 10 10:00 PM — Sep 25 10:00 PM, Ganja, Weather by CustomWeather, © 2016

Note: Actual official high and low records may vary slightly from our data, if they occured in-between our weather recording intervals... More about our weather records

Advertising

Ganja Weather History for the Previous 24 Hours

Scroll right to see more
 ConditionsComfort  
Time TempWeatherWind HumidityBarometerVisibility
10:00 PM
Sun, Sep 25
59 °FRefreshingly cool.6 mph59%30.07 "HgN/A
9:30 PM59 °FPassing clouds.No wind63%30.04 "HgN/A
9:00 PM59 °FPassing clouds.6 mph63%30.04 "HgN/A
8:30 PM61 °FPassing clouds.1 mph63%30.04 "HgN/A
8:00 PM63 °FPassing clouds.No wind52%30.04 "HgN/A
7:30 PM64 °FPassing clouds.No wind49%30.04 "HgN/A
6:30 PM66 °FPassing clouds.No wind37%30.04 "HgN/A
6:00 PM68 °FPassing clouds.No wind28%30.01 "HgN/A
5:30 PM68 °FPassing clouds.2 mph30%30.01 "HgN/A
5:00 PM68 °FPassing clouds.No wind30%30.01 "HgN/A
4:00 PM68 °FPassing clouds.No wind33%30.04 "HgN/A
3:00 PM68 °FPassing clouds.1 mph35%30.04 "HgN/A
2:00 PM68 °FPassing clouds.2 mph33%30.04 "HgN/A
1:30 PM68 °FPassing clouds.2 mph35%30.07 "HgN/A
1:00 PM66 °FPassing clouds.7 mph35%30.07 "HgN/A
12:00 PM66 °FPassing clouds.7 mph35%30.09 "HgN/A
11:30 AM64 °FPassing clouds.8 mph43%30.09 "HgN/A
11:00 AM63 °FPassing clouds.8 mph45%30.12 "HgN/A
10:30 AM63 °FPassing clouds.12 mph45%30.12 "HgN/A
10:00 AM61 °FPassing clouds.14 mph48%30.12 "HgN/A
9:30 AM61 °FPassing clouds.13 mph48%30.12 "HgN/A
9:00 AM59 °FPassing clouds.12 mph51%30.12 "HgN/A
8:30 AM57 °FPassing clouds.10 mph55%30.12 "HgN/A
6:30 AM54 °FPassing clouds.10 mph63%30.09 "HgN/A
6:00 AM54 °FPassing clouds.12 mph63%30.09 "HgN/A
5:30 AM52 °FPassing clouds.10 mph72%30.09 "HgN/A
5:00 AM52 °FPassing clouds.7 mph72%30.09 "HgN/A
4:30 AM54 °FPassing clouds.9 mph67%30.09 "HgN/A
4:00 AM54 °FPassing clouds.9 mph63%30.09 "HgN/A
3:00 AM52 °FPassing clouds.6 mph72%30.07 "HgN/A
2:30 AM54 °FPassing clouds.7 mph63%30.07 "HgN/A
2:00 AM55 °FPassing clouds.13 mph59%30.07 "HgN/A
12:30 AM55 °FPassing clouds.10 mph63%30.07 "HgN/A
12:00 AM57 °FPassing clouds.12 mph55%30.07 "HgN/A
11:30 PM
Sat, Sep 24
57 °FPassing clouds.12 mph59%30.07 "HgN/A
Weather by CustomWeather, © 2016

See weather overviewHow to use our weather pages